sat.trackr.live / text

‹ back to catalog

STARLINK-4372

NORAD 53233 · 2022-084AW

PAYLOAD ACTIVE UNKNOWN

§ Identity

Operator
Country
US
Launch date
2022-07-22
Launch site
AFWTR
Launch vehicle
Mass (kg)
RCS (m²)

Purposes: comms

External: N2YO · Heavens-Above · Gunter

§ Orbital elements

Epoch: 2026-05-25T03:10:56.412768Z

Period
95.64 min
Inclination
97.4519°
Eccentricity
0.0000591
Mean motion
15.05633991 rev/d
Perigee alt
549.2 km
Apogee alt
550.0 km
Semi-major
6,927.7 km
B*
-1.4390e-4
RAAN
205.0595°
Arg perigee
172.2324°
Mean anomaly
187.8912°
Rev number
21,081

§ Raw data

STARLINK-43721 53233U 22084AW  26145.13259737 -.00002133  00000+0 -14390-3 0  99972 53233  97.4519 205.0595 0000591 172.2324 187.8912 15.05633991210815

JSON: /api/v1/satellites/53233 · /tle

For live sub-satellite position, see the globe view (requires WebGL).

§ Visibility from observer

Set your observer location to see the next 7 days of passes ≥ 10°. The values pass through the URL so the page stays shareable.

No JS? Fill the form by hand. The geolocation button needs JavaScript.